Flag for U.S.A. Weather past 2 weeks in Cupertino, California, U.S.A.

Now
47 °F

Clear.


Feels Like: 47 °F
Forecast: 42 / 65 °F
Wind: No wind

Location: Moffett Field

Current Time: Jan 26, 2015 at 1:19:45 AM

Latest Report: Jan 26, 2015 at 12:56 AM


Visibility: 10 mi

Pressure: 30.06 "Hg

Humidity: 77%

Dew point: 40 °F

Location of CupertinoLocation

Historic Weather in Cupertino — Graph

°F

Cupertino temperature yesterday

Maximum temperature yesterday: 64 °F (at 3:56 PM)
Minimum temperature yesterday: 44 °F (at 7:56 AM)
Average temperature yesterday: 52 °F

Past Weeks' High & Low Weather Summary

 TemperatureHumidityPressure
High69 °F (Jan 24, 1:56 PM)100% (Jan 13, 2:59 AM)30.38 "Hg (Jan 13, 2:59 AM)
Low38 °F (Jan 14, 6:56 AM)26% (Jan 24, 3:56 PM)30.02 "Hg (Jan 25, 4:56 PM)
Average52 °F76%30.22 "Hg
* Reported Jan 10 11:56 PM — Jan 25 11:56 PM, Cupertino, Weather by CustomWeather, © 2014

Note: Actual official high and low records may vary slightly from our data, if they occured in-between our weather recording intervals... More about our weather records

Advertising

Cupertino weather history for previous 24 hours

 ConditionsComfort  
Time TempWeatherWind HumidityBarometerVisibility
11:56 PM
Jan 25
47 °FClear.No wind77%30.06 "Hg10 mi
10:56 PM49 °FClear.No wind77%30.07 "Hg10 mi
9:56 PM51 °FClear.No wind71%30.06 "Hg10 mi
8:56 PM53 °FClear.No wind69%30.06 "Hg10 mi
7:56 PM54 °FClear.No wind67%30.05 "Hg10 mi
6:56 PM56 °FClear.No wind62%30.04 "Hg10 mi
5:56 PM57 °FClear.No wind64%30.03 "Hg10 mi
4:56 PM63 °FSunny.No wind43%30.02 "Hg10 mi
3:56 PM64 °FSunny.3 mph41%30.03 "Hg10 mi
2:56 PM63 °FSunny.5 mph48%30.05 "Hg10 mi
1:56 PM60 °FSunny.3 mph56%30.06 "Hg10 mi
12:56 PM57 °FSunny.6 mph62%30.08 "Hg10 mi
11:56 AM56 °FSunny.5 mph60%30.12 "Hg10 mi
10:56 AM53 °FSunny.7 mph66%30.15 "Hg10 mi
9:56 AM51 °FSunny.5 mph74%30.16 "Hg10 mi
8:56 AM49 °FSunny.3 mph80%30.15 "Hg10 mi
7:56 AM44 °FSunny.5 mph85%30.16 "Hg8 mi
6:56 AM45 °FClear.5 mph86%30.16 "Hg10 mi
5:56 AM45 °FClear.5 mph82%30.14 "Hg10 mi
4:56 AM46 °FClear.3 mph79%30.14 "Hg10 mi
3:56 AM46 °FClear.3 mph79%30.14 "Hg10 mi
2:56 AM47 °FClear.No wind80%30.14 "Hg10 mi
1:56 AM49 °FClear.No wind80%30.14 "Hg10 mi
Weather by CustomWeather, © 2014

See weather overviewHow to use our weather pages